TimeMST,TemperatureF,Dew PointF,Humidity,Sea Level PressureIn,VisibilityMPH,Wind Direction,Wind SpeedMPH,Gust SpeedMPH,PrecipitationIn,Events,Conditions,WindDirDegrees,DateUTC
12:56 AM,35.1,19.9,54,30.05,10.0,South,11.5,-,N/A,,Clear,170,2012-11-19 07:56:00
1:56 AM,35.1,19.0,52,30.05,10.0,SSW,9.2,-,N/A,,Clear,200,2012-11-19 08:56:00
2:56 AM,35.1,18.0,50,30.02,10.0,SSW,12.7,-,N/A,,Clear,200,2012-11-19 09:56:00
3:56 AM,37.0,17.1,44,30.01,10.0,South,13.8,-,N/A,,Clear,180,2012-11-19 10:56:00
4:56 AM,39.0,18.0,43,29.99,10.0,South,20.7,26.5,N/A,,Clear,170,2012-11-19 11:56:00
5:56 AM,41.0,17.1,38,29.96,10.0,South,25.3,31.1,N/A,,Clear,180,2012-11-19 12:56:00
6:56 AM,41.0,18.0,40,29.97,10.0,South,24.2,-,N/A,,Clear,170,2012-11-19 13:56:00
7:56 AM,43.0,19.0,38,29.99,10.0,South,23.0,29.9,N/A,,Clear,170,2012-11-19 14:56:00
8:56 AM,45.0,21.0,39,29.97,10.0,South,28.8,38.0,N/A,,Clear,180,2012-11-19 15:56:00
9:56 AM,48.0,23.0,37,29.97,10.0,South,32.2,40.3,N/A,,Clear,180,2012-11-19 16:56:00
10:56 AM,51.1,25.0,36,29.98,10.0,South,29.9,38.0,N/A,,Clear,190,2012-11-19 17:56:00
11:56 AM,54.0,25.0,33,29.94,10.0,South,34.5,48.3,N/A,,Clear,180,2012-11-19 18:56:00
12:56 PM,55.9,26.1,32,29.89,10.0,South,36.8,42.6,N/A,,Clear,190,2012-11-19 19:56:00
1:56 PM,57.0,26.1,30,29.92,10.0,South,27.6,34.5,N/A,,Clear,180,2012-11-19 20:56:00
2:56 PM,55.0,27.0,34,29.91,10.0,South,28.8,34.5,N/A,,Clear,180,2012-11-19 21:56:00
3:56 PM,53.1,27.0,37,29.92,10.0,South,23.0,-,N/A,,Clear,170,2012-11-19 22:56:00
4:56 PM,50.0,28.0,43,29.90,10.0,SSE,23.0,28.8,N/A,,Clear,160,2012-11-19 23:56:00
5:56 PM,51.1,28.0,41,29.88,10.0,South,25.3,34.5,N/A,,Clear,170,2012-11-20 00:56:00
6:56 PM,50.0,28.0,43,29.84,10.0,South,33.4,41.4,N/A,,Clear,170,2012-11-20 01:56:00
7:56 PM,51.1,28.0,41,29.85,10.0,South,28.8,36.8,N/A,,Clear,180,2012-11-20 02:56:00
8:56 PM,51.1,28.0,41,29.82,10.0,South,31.1,42.6,N/A,,Clear,180,2012-11-20 03:56:00
9:56 PM,51.1,28.9,43,29.83,10.0,South,24.2,-,N/A,,Clear,180,2012-11-20 04:56:00
11:56 PM,51.1,28.9,43,29.80,10.0,South,29.9,40.3,N/A,,Clear,190,2012-11-20 06:56:00